Погода в Верхнеимбатске

Погода в Верхнеимбатске : погода сейчас, прогноз погоды и архив. Всё, что Вы хотите узнать о погоде в Верхнеимбатске!

Хотите узнать прогноз погоды в Верхнеимбатске? Тогда Вам сюда: Погода в Верхнеимбатске

Поиск расширенной информации на нашем сайте:

Другие новости

Новости СМИ2

Главная страница сайта

Новости сайта

03.07.2017

Напоминаем, что на нашем специализированном сайте Метеоцентр.Азия вы можете получить высокодетализированные автоматические прогнозы погоды по пунктам России, СНГ и мира в авиационном формате (включающие направление и скорость ветра, видимость, явления погоды, количество и форму облачности, нижнюю и верхнюю границу облачности).


Погода в Верхнеимбатске - сегодня

Время (UTC), дата Ветер
(°,м/с) 
Видим.   Явления Облачность Т
(°С)
Тd
(°С)
f(%) Тe
(°С)
Pmin
(гПа)
dP
(гПа)
Po
(мм)
O2
(г/м3)
Тmin Tmax R s Состояние
почвы
18 15.06.18 030 (СВ) н/о    3/0 средняя 
[Ac trans]
+17.2 +13.3 78 +25  1007.1  751  282           
21 15.06.18 060 (СВ) 20000 м    3/3 600 м средняя 
[Sc|Ac trans]
+17.5 +8.4 55 +18  1006.9  -0.2  751  283           
00 16.06.18 090 (В) 20000 м    8/8 600 м 
[Sc]
+18 +8.3 53 +19  1007.6  0.7  752  283  +15.5         
03 16.06.18 140 (ЮВ) 20000 м    8/8 600 м 
[Cu hum]
+20.3 +11.5 57 +23  1008.7  1.1  753  280           
06 16.06.18 150 (ЮВ) 20000 м    8/8 600 м 
[Cu hum]
+24.8 +14.6 53 +33  1009  0.4  753  275           
12 16.06.18 180 (Ю) 20000 м  {гроза, ливн. осадки}  6/0 верхняя 
[Ci fib]
+24.7 +15.7 57 +35  1008.9  753  275    +26.5  0.7     
15 16.06.18 250 (З) 20000 м    8/8 600 м 
[Cu med, cong]
+19.2 +15.1 77 +29  1009.2  0.2  753  280           
18 16.06.18 050 (СВ) н/о    8/0 средняя 
[As op]
+15.8 +13.1 84 +22  1009.6  0.3  753  284           
21 16.06.18 070 (В) 20000 м    6/0 средняя 
[Ac As]
+13.5 +10.4 82 +17  1010  0.4  753  287           
00 17.06.18 080 (В) 20000 м    ясно 
+17.4 +11.6 69 +22  1010.2  0.3  754  283  +12.5         
03 17.06.18 140 (ЮВ) 20000 м    ясно 
+21.3 +10.5 50 +23  1010.6  0.4  754  280           
06 17.06.18 140 (ЮВ) 20000 м    1/1 600 м 
[Cu hum]
+23.6 +8.5 38 +24  1009.7  -0.8  753  278           
09 17.06.18 100 (В) 20000 м    5/4 600 м верхняя 
[Cu med, cong|Ci fib]
+23.5 +10.8 45 +26  1009.3  -0.4  753  277           
12 17.06.18 130 (ЮВ) 20000 м    8/3 600 м верхняя 
[Cu hum|Ci fib]
+21.6 +11.6 53 +25  1009.9  0.6  754  279    +25.2       
15 17.06.18 тихо ()   20000 м    9/4 600 м средняя, верхняя 
[Sc|Ac trans|Ci fib]
+18.6 +11.3 62 +21  1010.7  0.6  754  282           
18 17.06.18 020 (С) н/о    10/10 600 м кучево-дожд. 
[Cb cap]
+15.8 +12.2 79 +21  1011.7  755  285           
21 17.06.18 060 (СВ) 20000 м    8/3 600 м верхняя 
[Sc|Ci fib]
+13 +11.7 92 +17  1011.4  -0.3  755  288           
00 18.06.18 070 (В) 20000 м    10/0 средняя, верхняя 
[Ac trans|Ci fib]
+14.1 +12.8 92 +20  1011.5  0.1  755  287  +11.7         
03 18.06.18 150 (ЮВ) 20000 м    8/3 600 м верхняя 
[Cu med, cong|Cs]
+18.4 +13.5 73 +25  1010.7  -0.8  754  282           
06 18.06.18 120 (ЮВ) 20000 м    10/4 600 м верхняя 
[Cu med, cong|Cs]
+22 +12.9 56 +27  1008  -2.5  752  278           
09 18.06.18 130 (ЮВ) 20000 м    8/3 600 м верхняя 
[Cu med, cong|Ci fib]
+25.2 +10.8 40 +27  1007.5  -0.5  752  275           
12 18.06.18 100 (В) 20000 м    8/3 600 м средняя, верхняя 
[Cu med, cong|As trans|Ci fib]
+25.4 +14.8 52 +34  1007  -0.5  751  274    +25.4       
15 18.06.18 090 (В) 20000 м    3/0 верхняя 
[Ci fib]
+24.3 +14.8 55 +33  1006.7  -0.3  751  275           
18 18.06.18 050 (СВ) н/о    8/0 средняя, верхняя 
[Ac lent|Ci fib]
+19.7 +14.8 73 +29  1005.8  -1  750  279           
21 18.06.18 060 (СВ) 20000 м    8/0 средняя, верхняя 
[As trans|Ci fib]
+19.3 +13.5 69 +26  1004.2  -1.6  749  279           
Время (UTC), дата Ветер
(°,м/с) 
Видим.   Явления Облачность Т
(°С)
Тd
(°С)
f(%) Тe
(°С)
Pmin
(гПа)
dP
(гПа)
Po
(мм)
O2
(г/м3)
Тmin Tmax R s Состояние
почвы

Для получения пояснительной информации подведите курсор к названию столбца.

ПОГОДА в Верхнеимбатске - архив

Всё, что Вы хотите узнать о погоде в Верхнеимбатске - удобно и подробно!

Выберите нужную дату (начиная с 1 января 2015* года) и нажмите кнопку "Найти".
Будут отображены архивные сводки погоды по пункту Верхнеимбатск, начиная с указанной даты.


Отображать данные в формате CSV (для использования в таблицах Excel)


Внимание! Наш архив погоды предназначен исключительно для личного некоммерческого использования в познавательных целях. Если Вам необходимы официальные справки о состоянии погоды (для производственных, юридических, коммерческих и т.п. целей), обращайтесь в органы Росгидромета.

*Примечание: данная дата относится к архиву по метеостанциям СССР (Россия, СНГ, Балтия).
Архив по метеостанциям Зарубежной Европы и Азии (кроме Китая) хранится 10 дней, по другим регионам земного шара (Китай, Африка, Америка, Австралия, Океания) - 1 день.

Верхнеимбатск - район местоположения метеостанции


Название, широта, долгота, высота метеостанции:
Верхнеимбатск 63.2°ш. 87.9°д. 46 м над ур. моря [Российская Федерация]

Дополнительная информация

В oтличие oт бoльшинства пoгoдных сайтoв мы публикуем пoдрoбную метеoинфoрмацию в детальнoм прoфессиoнальнoм фoрмате.

Характеристики температуры и влажнoсти вoздуха измеряются на высoте 2 м в тени вдали oт зданий и деревьев.
Скoрoсть ветра измеряется на высoте 10 м (на урoвне рoста челoвека скoрoсть ветра ниже в 1.5-2 раза). Если метеoстанция нахoдится в гoрoде или в лесу, тo скoрoсть ветра занижена на 2-4 м/с пo сравнению с oткрытым местoм. Скoрoсть ветра над акватoриями крупных рек и oзёр, а также на вершинах хoлмoв на 2-5 м/с выше, чем в oбычных услoвиях.
Атмoсфернoе давление в разных тoчках местнoсти мoжет значительнo oтличаться oт давления на метеoстанции, в зависимoсти oт услoвий рельефа (при пoдъёме на 10 м давление пoнижается примернo на 1 мм рт.ст.).